GW0759 Weather Reports


Display with metric or nautical units.
time (UTC)temp
F
wind
direction
speed
MPH
gust
MPH
rain 1hr
in
rain 24hr
in
rain mn
in
humidity
%
barometer
mb
20260831010100 92 123 1.0 5.0 0.00 0.00 0.00 35 1011.4
20260831004556 94 146 2.0 5.0 0.00 0.00 0.00 32 1011.4
20260831003102 96 131 2.0 7.0 0.00 0.00 0.00 30 1011.3
20260831001557 97 132 4.0 10.0 0.00 0.00 0.00 29 1011.3
20260831000057 98 96 4.0 9.0 0.00 0.00 0.00 28 1011.3
20260830234608 100 120 4.0 12.0 0.00 0.00 0.00 27 1011.5
20260830233058 101 130 5.0 11.0 0.00 0.00 0.00 26 1011.5
20260830231557 102 126 8.0 13.0 0.00 0.00 0.00 26 1011.4
20260830224557 102 152 6.0 14.0 0.00 0.00 0.00 27 1011.5
20260830223104 103 119 8.0 14.0 0.00 0.00 0.00 27 1011.5
20260830221605 103 169 5.0 14.0 0.00 0.00 0.00 26 1011.6
20260830220113 103 59 3.0 11.0 0.00 0.00 0.00 27 1011.6
20260830214604 103 198 4.0 12.0 0.00 0.00 0.00 25 1011.6
20260830213100 104 128 6.0 12.0 0.00 0.00 0.00 23 1011.8
20260830211556 104 142 7.0 12.0 0.00 0.00 0.00 24 1012.0
20260830210055 100 192 7.0 15.0 0.00 0.00 0.00 27 1012.4
20260830204602 104 166 8.0 16.0 0.00 0.00 0.00 26 1012.6
20260830203117 105 83 6.0 13.0 0.00 0.00 0.00 26 1012.7
20260830201608 102 172 5.0 13.0 0.00 0.00 0.00 28 1012.9
20260830200105 101 211 6.0 13.0 0.00 0.00 0.00 28 1013.1
20260830194608 103 95 7.0 13.0 0.00 0.00 0.00 26 1013.2
20260830193100 101 163 5.0 11.0 0.00 0.00 0.00 30 1013.4
20260830191606 100 92 6.0 14.0 0.00 0.00 0.00 28 1013.6
20260830190100 100 160 6.0 11.0 0.00 0.00 0.00 30 1013.7
20260830184555 99 82 5.0 13.0 0.00 0.00 0.00 31 1013.9
20260830183108 99 178 6.0 12.0 0.00 0.00 0.00 32 1014.3
20260830181558 98 190 7.0 14.0 0.00 0.00 0.00 33 1014.4
20260830180058 97 204 5.0 17.0 0.00 0.00 0.00 32 1014.6
20260830174611 97 163 6.0 13.0 0.00 0.00 0.00 33 1015.0
20260830173109 97 221 5.0 11.0 0.00 0.00 0.00 35 1015.1
20260830171607 97 186 6.0 12.0 0.00 0.00 0.00 35 1015.3
20260830170054 95 193 2.0 11.0 0.00 0.00 0.00 37 1015.5
20260830164615 94 185 5.0 12.0 0.00 0.00 0.00 41 1015.5
20260830163108 93 191 5.0 17.0 0.00 0.00 0.00 42 1015.7
20260830161556 92 204 4.0 11.0 0.00 0.00 0.00 43 1015.9
20260830160104 92 78 5.0 13.0 0.00 0.00 0.00 46 1015.9
20260830154600 90 191 4.0 11.0 0.00 0.00 0.00 50 1016.0
20260830153104 89 154 3.0 10.0 0.00 0.00 0.00 53 1015.9
20260830151559 88 209 4.0 9.0 0.00 0.00 0.00 55 1015.8
20260830150056 87 128 3.0 8.0 0.00 0.00 0.00 57 1015.8
20260830144605 86 235 3.0 9.0 0.00 0.00 0.00 58 1015.8
20260830143100 85 219 3.0 9.0 0.00 0.00 0.00 61 1015.8
20260830141605 83 172 3.0 9.0 0.00 0.00 0.00 65 1015.7
20260830140104 82 180 2.0 6.0 0.00 0.00 0.00 68 1015.7
20260830134558 81 160 2.0 8.0 0.00 0.00 0.00 71 1015.6
20260830133138 80 165 3.0 7.0 0.00 0.00 0.00 74 1015.6
20260830131613 78 0 0.0 3.0 0.00 0.00 0.00 77 1015.4
20260830130054 77 0 0.0 2.0 0.00 0.00 0.00 79 1015.2
20260830124610 75 0 0.0 2.0 0.00 0.00 0.00 81 1015.1
20260830123059 74 0 0.0 2.0 0.00 0.00 0.00 81 1014.9
20260830121554 74 143 0.0 2.0 0.00 0.00 0.00 81 1014.7
20260830120058 74 143 0.0 2.0 0.00 0.00 0.00 80 1014.5
20260830114609 75 0 0.0 3.0 0.00 0.00 0.00 79 1014.4
20260830113108 75 0 0.0 2.0 0.00 0.00 0.00 78 1014.3
20260830111557 75 0 0.0 1.0 0.00 0.00 0.00 77 1014.2
20260830110059 76 0 1.0 3.0 0.00 0.00 0.00 76 1014.0
20260830104558 76 143 1.0 3.0 0.00 0.00 0.00 75 1013.9
20260830103059 76 182 1.0 3.0 0.00 0.00 0.00 75 1013.9
20260830101559 76 140 0.0 2.0 0.00 0.00 0.00 74 1013.9
20260830100057 76 175 1.0 3.0 0.00 0.00 0.00 73 1013.8
20260830094559 76 0 0.0 0.0 0.00 0.00 0.00 72 1013.8
20260830093054 77 0 0.0 1.0 0.00 0.00 0.00 70 1013.7
20260830091602 78 175 0.0 2.0 0.00 0.00 0.00 69 1013.7
20260830090100 78 175 1.0 3.0 0.00 0.00 0.00 68 1013.6
20260830084605 78 0 0.0 3.0 0.00 0.00 0.00 67 1013.6
20260830083109 79 151 1.0 3.0 0.00 0.00 0.00 67 1013.5
20260830081559 79 151 1.0 5.0 0.00 0.00 0.00 66 1013.6
20260830080057 79 151 1.0 3.0 0.00 0.00 0.00 65 1013.7
20260830074552 80 151 1.0 5.0 0.00 0.00 0.00 64 1013.9
20260830073056 80 184 1.0 4.0 0.00 0.00 0.00 63 1013.8
20260830071555 80 0 1.0 3.0 0.00 0.00 0.00 62 1014.0
20260830070105 80 178 1.0 3.0 0.00 0.00 0.00 61 1013.9
20260830064559 81 178 1.0 4.0 0.00 0.00 0.00 60 1014.0
20260830063101 81 178 0.0 3.0 0.00 0.00 0.00 59 1014.0
20260830061605 81 0 0.0 3.0 0.00 0.00 0.00 58 1014.0
20260830060056 81 178 0.0 3.0 0.00 0.00 0.00 57 1013.9
20260830054604 82 0 0.0 3.0 0.00 0.00 0.00 56 1013.9
20260830053055 82 140 1.0 3.0 0.00 0.00 0.00 55 1013.9
20260830051603 83 140 1.0 4.0 0.00 0.00 0.00 53 1013.9
20260830050115 84 129 1.0 3.0 0.00 0.00 0.00 52 1014.0
20260830044607 84 128 1.0 3.0 0.00 0.00 0.00 51 1014.0
20260830043057 84 173 1.0 5.0 0.00 0.00 0.00 50 1013.9
20260830041613 84 157 1.0 4.0 0.00 0.00 0.00 50 1013.9
20260830040112 85 165 0.0 4.0 0.00 0.00 0.00 48 1013.9
20260830034628 86 184 2.0 5.0 0.00 0.00 0.00 47 1013.7
20260830033100 86 134 2.0 6.0 0.00 0.00 0.00 46 1013.7
20260830031612 87 133 3.0 6.0 0.00 0.00 0.00 46 1013.6
20260830030059 86 163 1.0 4.0 0.00 0.00 0.00 45 1013.5
20260830024605 87 0 0.0 3.0 0.00 0.00 0.00 45 1013.4
20260830023056 88 136 2.0 5.0 0.00 0.00 0.00 43 1013.3
20260830021601 88 149 1.0 5.0 0.00 0.00 0.00 42 1013.0
20260830020118 87 145 1.0 2.0 0.00 0.00 0.00 43 1013.0
20260830014631 89 144 1.0 3.0 0.00 0.00 0.00 40 1012.9
20260830013111 90 144 2.0 6.0 0.00 0.00 0.00 39 1012.5
20260830011553 91 140 2.0 5.0 0.00 0.00 0.00 37 1012.3